Showing default

DROID.002, 63223

Orbit data source: Space-Track

DROID.002, 63223 is a payload satellite owned by Turion Space (US) in SSO that was launched on Sat, 15 Mar 2025 UTC via an FALCON 9 launch vehicle from the Air Force Western Test Range (AFWTR). Payload-class satellites include a variety of spacecraft equipped with specific instruments for various scientific and technological missions. These include communications satellites like Starlink; space stations such as the ISS; scientific satellites like the Hubble; Earth observation satellites from companies like Planet Labs, Umbra, and HawkEye 360; GPS; miniature CubeSats for education and research; and military/defense satellites.

Loading next visibility...
Identifier
63223, 2025-052P
Orbit
SSO
Last TLE update
10 hours ago
Origin
Manufacturer
Turion Space
Mission
Operational Commercial Technology
Bus & Motor
DROID, Unknown motor
Mass
90 kg wet, 90 kg dry
Launch date (UTC)
2025-03-15 (4 months ago)
Launch vehicle
FALCON 9
Launch site
Air Force Western Test Range (AFWTR)
Object type
Payload
Rocket body
Debris
Shape & HBR
Box + 2 Pan, 2 m
Radar Cross Section
0.892 m², Large (>1 m²)

Expand to show TLE details & history

TLE from 10 hours ago
0 DROID.002
1 63223U 25052P   25188.93915415  .00003973  00000-0  19354-3 0  9998
2 63223  97.4318  82.3213 0002687 255.8787 104.2149 15.18925648 17541
Epoch: 2025-07-07T22:32Z
TLE epoch observation values (Epoch: 2025-07-07T22:32:22.918Z)
Latitude
-0.00003°
Longitude
178.08451°
Altitude
512.629 km
Speed
7.607 km/s
True Right ascension
05h 29m 17s
True Declination
0° 00' 00"
Sunlit
Object was in daylight at epoch
Visualization orbit readout
Latitude
41.35606°
Longitude
171.92375°
Altitude
516.706 km
Speed
7.608 km/s
Apparent Right ascension
06h 38m 31s
Apparent Declination
2° 52' 50"
Sunlit
Object is in daylight
Visualization observer readout
Local Sidereal Time
20:18:12
Azimuth
34.178° NE
Elevation
-41.487°
Doppler factor
1
Orbital elements
Apogee altitude
507.904 km
Perigee altitude
504.205 km
Semi-major axis
6,884.192 km
Eccentricity
0.00027
Inclination
97.4318°
RAAN
82.3213°
Arg. of periapsis
255.8787°
True anomaly
Unknown
Mean anomaly
104.2149°
Eccentric anomaly
Unknown
Mean motion
3.79983 °/min
Orbital period
94.74 mins
BSTAR
0.00019354
Loading maneuver chart data...
Loading SW <> Apogee altitude chart data...
Loading historical data...
Loading historical data...
Loading historical data...
Loading historical data...
Loading historical data...
Loading historical data...
Loading historical data...

DROID.002 Visibility forecast

Observer location: undefined°, undefined°

Span
Click to sort rows by Start time (UTC) header in descending order
Start Az.
Max El. time (UTC)
Max El. Az.
Max El.
End time (UTC)
End Az.
4 mins2025-07-08 16:05:31.489Z102.998° ESE2025-07-08 16:07:31.489Z62.901° ENE18.082°2025-07-08 16:09:31.489Z27.267° NE
4 mins2025-07-08 17:39:31.489Z227.425° WSW2025-07-08 17:40:31.489Z250.344° W22.804°2025-07-08 17:43:31.489Z315.52° NNW
4 mins2025-07-09 05:10:31.489Z60.253° ENE2025-07-09 05:11:31.489Z85.05° E24.353°2025-07-09 05:14:31.489Z151.067° SSE
|